{"data":{"norad_id":60048,"intl_designator":"2024-112L","name":"STARLINK-11135 [DTC]","alt_names":[],"object_type":"PAYLOAD","status":"ACTIVE","operator":null,"country":"US","launch_date":"2024-06-08","launch_site_code":"AFWTR","launch_vehicle":null,"mission":null,"orbit_class":"UNKNOWN","rcs_meters":null,"size_class":null,"mass_kg":null,"dimensions":null,"purposes":["comms"],"wikipedia_slug":null,"has_3d_model":false,"image_url":null,"decayed_at":null,"tle_current":{"epoch":"2026-05-25T00:22:31.810080Z","epoch_age_seconds":80597,"freshness":"FRESH","line1":"1 60048U 24112L   26145.01564595  .00001554  00000+0  17680-4 0  9991","line2":"2 60048  53.1589 249.6764 0000974  62.2102 297.9014 15.69710089112970","mean_motion":15.69710089,"eccentricity":9.74e-5,"inclination_deg":53.1589,"raan_deg":249.6764,"arg_perigee_deg":62.2102,"mean_anomaly_deg":297.9014,"bstar":1.768e-5,"rev_number":11297,"period_min":91.736685015344,"perigee_km":359.07022783138,"apogee_km":360.38276364034,"semimajor_km":6737.8634957359,"source":"CELESTRAK","updated_at":"2026-05-25T13:38:19.154152Z"}}}